Lulu Pass Weather Station

This weather station provides temperature, relative humidity (RH), wind speed, gust or max wind speed, and wind direction at 10014ft near Lulu Pass at the head of Fisher Creek. This data can be used with temperature and precipitation data from the Fisher Creek SNOTEL site.

This weather station was purchased by the Friends of the Avalanche Center.

If the data has not been updated recently you can view it directly on datagarrison.com

Elevation
10014ft
Jump to table bottom
Date Time Temperature
deg F
RH, % Wind Speed Wind Gust Wind Direction
12/08/19 11:00 20.3 98 12 20 W - 261
12/08/19 10:00 20.2 98 7 20 SW - 236
12/08/19 09:00 20.4 98 10 24 SW - 229
12/08/19 08:00 20.9 98 12 26 SW - 234
12/08/19 07:00 21.7 98 12 24 NW - 299
12/08/19 06:00 22.6 99 10 22 W - 278
12/08/19 05:00 22.7 99 11 26 SW - 237
12/08/19 04:00 22.7 99 13 38 SW - 226
12/08/19 03:00 22.7 98 17 32 SW - 212
12/08/19 02:00 22.5 98 20 44 SW - 204
12/08/19 01:00 22.0 98 13 35 SW - 209
12/08/19 00:00 21.5 98 9 21 SW - 230
12/07/19 23:00 21.6 98 13 25 SW - 213
12/07/19 22:00 21.4 98 16 27 SW - 216
12/07/19 21:00 21.2 98 15 31 SW - 213
12/07/19 20:00 21.0 98 15 30 SW - 216
12/07/19 19:00 21.2 98 12 26 SW - 229
12/07/19 18:00 21.1 98 13 25 SW - 234
12/07/19 17:00 20.8 98 12 34 SW - 239
12/07/19 16:00 20.6 98 17 37 SW - 233
12/07/19 15:00 20.6 98 13 29 SW - 229
12/07/19 14:00 20.6 98 14 39 SW - 215
12/07/19 13:00 21.0 98 11 25 SW - 213
12/07/19 12:00 21.4 98 10 28 SW - 220
12/07/19 11:00 20.7 98 16 35 SW - 208
12/07/19 10:00 20.6 98 10 22 SW - 219
12/07/19 09:00 20.6 98 14 27 SW - 216
12/07/19 08:00 20.4 98 11 27 SW - 215
12/07/19 07:00 20.3 98 11 23 SW - 216
12/07/19 06:00 20.1 98 10 23 SW - 220
12/07/19 05:00 20.2 98 13 32 SW - 229
12/07/19 04:00 19.6 97 13 35 SW - 219
12/07/19 03:00 19.6 97 11 24 SW - 216
12/07/19 02:00 19.8 97 11 27 SW - 219
12/07/19 01:00 19.5 97 20 36 SW - 215
12/07/19 00:00 19.0 96 27 48 SW - 212
12/06/19 23:00 20.8 97 16 41 SW - 222
12/06/19 22:00 17.7 97 5 12 NW - 330
12/06/19 21:00 18.0 97 5 16 W - 250
12/06/19 20:00 17.6 96 7 18 SW - 219
12/06/19 19:00 17.0 96 9 14 SW - 220
12/06/19 18:00 17.1 96 6 15 SW - 236
12/06/19 17:00 17.0 96 7 17 SW - 229
12/06/19 16:00 16.9 96 8 17 SW - 223
12/06/19 15:00 17.1 97 7 15 SW - 232
12/06/19 14:00 18.5 97 4 11 W - 248
12/06/19 13:00 18.7 97 4 13 W - 254
12/06/19 12:00 18.7 97 6 12 W - 270
12/06/19 11:00 17.7 96 6 13 W - 284
12/06/19 10:00 17.1 96 6 14 W - 254